User: anonymous   Login
Location: Caltech
(34.1382°N, 118.1253°W)
Time: 21:47:27
(UTC-08:00)
Language:

CZ-2C R/B - Orbit

View from above orbital plane
View from above orbital plane
View from above satellite
View from above satellite

Ground track
Ground track

The orbit data is extracted from the following two-line orbital elements,

1 36089U 09061B   17020.93152878 +.00000121 +00000-0 +41078-4 0  9993
2 36089 098.0503 029.2882 0082963 138.5850 243.0304 14.49634997380285
Epoch (UTC): 20 January 2017 22:21:24
Eccentricity: 0.0082963
inclination: 98.0503°
perigee height: 668 km
apogee height: 786 km
right ascension of ascending node: 29.2882°
argument of perigee: 138.5850°
revolutions per day: 14.49634997
mean anomaly at epoch: 243.0304°
orbit number at epoch: 38028

The dashed part of the orbit path shows where the satellite is in the earth's shadow,  

DLR